Total_Precipitation_Accumulation
0.78 0.73 0.69 0.65 0.63 0.63 0.60 0.55 0.49 0.43 0.36 0.34 0.32 0.29 0.28 0.26 0.26 0.24 0.20 0.20 0.20 0.24 0.37 0.59 0.85 1.08 1.28 1.45 1.55 1.45 1.40 1.26 1.00 0.85 0.82 0.90 0.96 1.02 1.03 1.09 1.09 0.99 0.97
0.77 0.74 0.71 0.70 0.65 0.61 0.60 0.57 0.53 0.48 0.40 0.34 0.29 0.27 0.26 0.25 0.26 0.27 0.25 0.26 0.24 0.23 0.30 0.44 0.64 0.95 1.21 1.39 1.58 1.69 1.56 1.52 1.37 1.09 0.92 0.90 0.93 0.98 1.01 1.08 1.15 1.13 1.05
0.73 0.77 0.77 0.73 0.67 0.61 0.58 0.58 0.58 0.58 0.53 0.44 0.36 0.29 0.25 0.23 0.22 0.22 0.25 0.28 0.29 0.28 0.29 0.37 0.47 0.70 1.03 1.31 1.50 1.74 1.78 1.64 1.66 1.53 1.27 1.06 0.99 0.99 1.04 1.10 1.16 1.23 1.18
0.76 0.80 0.82 0.78 0.72 0.67 0.64 0.60 0.57 0.57 0.55 0.51 0.46 0.41 0.34 0.28 0.22 0.20 0.21 0.24 0.31 0.33 0.32 0.34 0.40 0.52 0.81 1.14 1.46 1.70 2.09 1.96 1.84 1.89 1.83 1.50 1.22 1.12 1.14 1.19 1.23 1.29 1.32
0.74 0.79 0.84 0.84 0.82 0.79 0.74 0.70 0.63 0.56 0.52 0.49 0.46 0.43 0.38 0.33 0.30 0.28 0.24 0.22 0.24 0.31 0.36 0.37 0.40 0.42 0.58 0.90 1.24 1.57 2.07 2.41 2.23 2.15 2.21 2.11 1.74 1.44 1.34 1.36 1.40 1.43 1.48
0.76 0.75 0.79 0.82 0.86 0.84 0.79 0.74 0.69 0.61 0.53 0.49 0.48 0.45 0.38 0.31 0.28 0.26 0.24 0.22 0.21 0.24 0.34 0.41 0.43 0.39 0.42 0.58 0.88 1.31 1.76 2.25 2.51 2.42 2.38 2.42 2.29 1.99 1.74 1.62 1.59 1.65 1.69
0.84 0.81 0.79 0.79 0.82 0.82 0.75 0.70 0.69 0.68 0.64 0.60 0.62 0.58 0.49 0.40 0.33 0.29 0.26 0.22 0.19 0.19 0.24 0.37 0.45 0.43 0.38 0.41 0.53 0.80 1.28 1.91 2.45 2.69 2.68 2.60 2.58 2.40 2.13 1.92 1.78 1.82 1.91
0.88 0.86 0.80 0.80 0.80 0.78 0.75 0.69 0.66 0.67 0.65 0.65 0.67 0.70 0.62 0.55 0.45 0.34 0.31 0.27 0.23 0.22 0.25 0.29 0.39 0.45 0.44 0.39 0.36 0.47 0.75 1.31 1.99 2.55 2.85 2.92 2.89 2.84 2.58 2.29 2.07 2.03 2.12
0.87 0.91 0.85 0.80 0.82 0.83 0.79 0.70 0.65 0.63 0.63 0.59 0.58 0.76 0.80 0.58 0.39 0.31 0.29 0.28 0.27 0.27 0.26 0.28 0.34 0.42 0.47 0.47 0.43 0.44 0.52 0.83 1.42 2.14 2.68 2.97 3.09 3.23 3.14 2.76 2.49 2.35 2.37
0.85 0.84 0.87 0.86 0.81 0.80 0.77 0.72 0.66 0.62 0.65 0.65 0.60 0.58 0.64 0.63 0.61 0.43 0.27 0.26 0.29 0.31 0.30 0.29 0.32 0.38 0.45 0.51 0.53 0.55 0.56 0.64 1.01 1.56 2.24 2.84 3.22 3.51 3.71 3.33 2.88 2.68 2.62
0.84 0.85 0.83 0.85 0.84 0.79 0.74 0.74 0.74 0.72 0.71 0.70 0.64 0.57 0.54 0.50 0.52 0.61 0.42 0.29 0.31 0.31 0.33 0.35 0.35 0.38 0.42 0.49 0.55 0.59 0.67 0.68 0.89 1.25 1.72 2.43 3.06 3.65 4.17 4.03 3.33 2.85 2.68
0.88 0.83 0.83 0.82 0.82 0.79 0.71 0.69 0.72 0.75 0.76 0.72 0.66 0.61 0.62 0.61 0.53 0.58 0.54 0.37 0.35 0.33 0.35 0.40 0.44 0.45 0.45 0.49 0.53 0.64 0.70 0.75 0.85 1.05 1.32 1.81 2.47 3.09 3.90 4.28 3.78 3.13 2.73
0.94 0.86 0.82 0.79 0.77 0.77 0.76 0.73 0.74 0.72 0.73 0.77 0.75 0.67 0.61 0.57 0.55 0.62 0.67 0.56 0.49 0.41 0.40 0.42 0.44 0.50 0.55 0.56 0.56 0.62 0.65 0.73 0.84 0.97 1.09 1.28 1.72 2.42 3.24 4.13 4.38 3.74 3.16
0.88 0.88 0.89 0.83 0.75 0.72 0.76 0.80 0.79 0.76 0.75 0.78 0.75 0.72 0.67 0.57 0.59 0.67 0.77 0.87 0.82 0.57 0.48 0.44 0.41 0.45 0.53 0.61 0.63 0.66 0.61 0.72 0.81 0.91 1.01 1.11 1.25 1.69 2.49 3.46 4.40 4.47 3.81
0.88 0.94 0.95 0.93 0.87 0.81 0.77 0.78 0.80 0.79 0.82 0.81 0.80 0.78 0.78 0.70 0.66 0.67 0.72 0.88 1.15 1.00 0.59 0.43 0.42 0.45 0.52 0.61 0.70 0.68 0.66 0.71 0.78 0.90 1.02 1.09 1.16 1.36 1.74 2.38 3.27 4.23 4.43
0.85 0.97 1.01 0.97 0.97 0.94 0.89 0.84 0.81 0.79 0.84 0.86 0.87 0.87 0.85 0.84 0.82 0.77 0.77 0.82 0.97 1.11 0.83 0.42 0.39 0.43 0.56 0.66 0.78 0.78 0.77 0.84 0.83 0.91 0.99 1.05 1.08 1.19 1.40 1.77 2.33 3.21 4.08
0.79 0.88 0.99 1.02 1.01 1.00 0.97 0.96 0.92 0.90 0.90 0.90 0.94 0.99 0.97 0.95 1.00 0.96 0.90 0.86 0.87 0.98 0.99 0.52 0.39 0.42 0.62 0.82 0.87 0.88 0.92 0.87 0.81 0.85 0.91 0.97 1.03 1.12 1.30 1.53 1.85 2.40 3.24
0.81 0.84 0.94 1.07 1.10 1.08 1.04 1.02 1.01 1.05 1.11 1.07 1.01 1.03 1.06 1.06 1.09 1.07 1.06 0.97 0.86 0.82 0.92 0.75 0.51 0.53 0.66 0.83 0.89 0.92 0.99 0.96 0.88 0.91 0.94 0.99 1.06 1.16 1.31 1.46 1.66 1.95 2.56
0.85 0.85 0.94 1.09 1.16 1.18 1.15 1.07 1.06 1.10 1.20 1.29 1.26 1.23 1.17 1.16 1.17 1.12 1.12 1.08 0.97 0.87 0.85 0.87 0.70 0.62 0.70 0.80 0.93 1.00 1.04 1.04 1.04 1.06 1.01 1.03 1.12 1.18 1.28 1.40 1.52 1.73 2.00
0.88 0.89 0.90 0.99 1.11 1.22 1.31 1.31 1.32 1.26 1.26 1.30 1.33 1.35 1.32 1.33 1.29 1.24 1.24 1.19 1.15 1.15 1.09 1.08 0.96 0.81 0.79 0.83 1.00 1.18 1.26 1.13 1.11 1.10 1.10 1.11 1.18 1.23 1.28 1.26 1.23 1.41 1.67
0.89 0.89 0.90 0.89 0.97 1.24 1.60 1.60 1.53 1.46 1.33 1.23 1.16 1.17 1.24 1.40 1.46 1.54 1.58 1.47 1.44 1.53 1.50 1.43 1.25 1.08 0.97 1.02 1.13 1.23 1.43 1.37 1.26 1.18 1.18 1.11 1.14 1.14 1.14 1.16 1.18 1.32 1.53
1.00 0.95 0.92 0.88 0.92 1.12 1.57 1.65 1.38 1.18 1.06 1.04 1.02 0.95 0.96 1.16 1.27 1.41 1.56 1.58 1.65 1.80 1.88 1.81 1.56 1.32 1.08 1.03 1.15 1.37 1.57 1.74 1.65 1.29 1.29 1.30 1.25 1.28 1.18 1.12 1.17 1.24 1.40
1.04 1.01 0.94 0.88 0.83 0.90 1.30 1.43 1.24 0.98 0.84 0.81 0.84 0.84 0.84 0.91 1.06 1.05 1.22 1.33 1.41 1.58 1.79 1.90 1.86 1.45 1.19 1.09 1.35 1.55 1.61 1.73 1.64 1.42 1.49 1.68 1.49 1.41 1.29 1.25 1.24 1.16 1.25
1.10 1.05 0.97 0.90 0.86 0.81 1.15 1.35 1.23 0.90 0.77 0.70 0.70 0.69 0.70 0.74 0.89 1.06 1.19 1.20 1.15 1.25 1.53 1.73 1.87 1.69 1.47 1.40 1.64 1.93 2.06 2.07 1.89 1.69 1.65 1.97 1.75 1.59 1.49 1.39 1.30 1.15 1.16
1.04 1.03 0.98 0.89 0.86 0.84 1.04 1.37 1.36 0.98 0.81 0.70 0.68 0.68 0.64 0.64 0.89 1.14 1.16 1.12 1.02 1.05 1.23 1.51 1.73 1.82 1.86 1.97 2.12 2.41 2.60 2.56 2.40 2.05 1.83 1.98 1.99 1.88 1.74 1.62 1.43 1.22 1.10
0.98 0.99 0.99 0.91 0.86 0.82 0.97 1.36 1.55 1.11 0.91 0.79 0.72 0.70 0.78 0.82 1.01 1.09 1.04 1.11 1.16 1.04 1.01 1.09 1.20 1.31 1.40 1.56 1.88 2.15 2.39 2.52 2.49 2.44 2.01 1.94 2.07 2.13 2.32 1.94 1.53 1.18 1.02